Home   Weather   Baden   Past weeks

Flag for Austria Past Weather in Baden, Lower Austria, Austria — Yesterday and Last 2 Weeks

41 °F

Scattered clouds.

Feels Like: 39 °F
Forecast: 33 / 51 °F
Wind: 3 mph from South

Location: Vienna Schwechat-Flughafen Airport

Current Time: Oct 22, 2016 at 9:15:24 AM

Latest Report: Oct 22, 2016 at 8:50 AM

Visibility: 4 mi

Pressure: 30.04 "Hg

Humidity: 93%

Dew Point: 39 °F

Location of BadenLocation

Past Weather in Baden — Graph


Baden Temperature Yesterday

Maximum temperature yesterday: 48 °F (at 1:20 PM)
Minimum temperature yesterday: 39 °F (at 12:20 AM)
Average temperature yesterday: 43 °F

High & Low Weather Summary for the Past Weeks

High64 °F (Oct 16, 1:20 PM)100% (Oct 7, 10:50 PM)30.33 "Hg (Oct 7, 10:50 PM)
Low34 °F (Oct 8, 12:50 AM)55% (Oct 9, 3:50 PM)29.89 "Hg (Oct 12, 2:20 AM)
Average47 °F86%30.09 "Hg
* Reported Oct 7 7:20 AM — Oct 22 7:50 AM, Baden, Weather by CustomWeather, © 2016

Note: Actual official high and low records may vary slightly from our data, if they occured in-between our weather recording intervals... More about our weather records


Baden Weather History for the Previous 24 Hours

Scroll right to see more
Time TempWeatherWind HumidityBarometerVisibility
7:50 AM
Sat, Oct 22
37 °FPassing clouds.2 mph93%30.01 "Hg6 mi
7:20 AM39 °FPassing clouds.6 mph93%30.01 "Hg6 mi
6:50 AM39 °FPassing clouds.6 mph93%30.01 "Hg6 mi
6:20 AM41 °FPassing clouds.3 mph87%30.01 "Hg6 mi
5:50 AM41 °FPassing clouds.3 mph93%30.01 "Hg6 mi
5:20 AM41 °FClear.2 mph100%30.01 "Hg10 mi
4:50 AM43 °FClear.6 mph87%30.01 "Hg10 mi
4:20 AM43 °FClear.9 mph93%30.01 "Hg10 mi
3:50 AM45 °FPassing clouds.10 mph87%30.01 "HgN/A
3:20 AM45 °FPassing clouds.8 mph87%30.01 "HgN/A
2:50 AM45 °FPassing clouds.9 mph87%30.01 "HgN/A
1:50 AM45 °FPassing clouds.3 mph87%30.01 "HgN/A
1:20 AM45 °FClear.6 mph87%30.01 "Hg10 mi
12:50 AM41 °FClear.7 mph93%30.01 "Hg10 mi
12:20 AM43 °FPassing clouds.5 mph87%29.98 "HgN/A
11:50 PM
Fri, Oct 21
43 °FClear.6 mph87%30.01 "Hg10 mi
11:20 PM43 °FClear.7 mph87%30.01 "Hg10 mi
10:50 PM45 °FPassing clouds.5 mph87%29.98 "HgN/A
10:20 PM45 °FPassing clouds.6 mph87%29.98 "HgN/A
9:50 PM45 °FClear.9 mph87%29.98 "Hg10 mi
9:20 PM41 °FPassing clouds.3 mph100%29.98 "HgN/A
8:50 PM45 °FClear.2 mph87%29.98 "Hg10 mi
8:20 PM43 °FClear.1 mph100%29.98 "Hg10 mi
7:50 PM43 °FClear.5 mph93%29.95 "Hg10 mi
7:20 PM43 °FClear.3 mph100%29.95 "Hg10 mi
6:50 PM45 °FPassing clouds.3 mph93%29.95 "HgN/A
6:20 PM46 °FPassing clouds.2 mph93%29.95 "HgN/A
5:50 PM48 °FBroken clouds.2 mph87%29.95 "HgN/A
5:20 PM48 °FBroken clouds.3 mph87%29.95 "HgN/A
4:50 PM48 °FBroken clouds.3 mph87%29.95 "HgN/A
4:20 PM48 °FBroken clouds.2 mph87%29.95 "HgN/A
3:50 PM48 °FPartly sunny.2 mph87%29.95 "HgN/A
3:20 PM48 °FPartly sunny.1 mph87%29.95 "HgN/A
2:50 PM48 °FBroken clouds.3 mph87%29.95 "HgN/A
2:20 PM48 °FBroken clouds.3 mph87%29.95 "HgN/A
1:50 PM48 °FPartly sunny.3 mph87%29.95 "HgN/A
1:20 PM48 °FPartly sunny.3 mph87%29.95 "HgN/A
12:50 PM46 °FBroken clouds.3 mph93%29.95 "HgN/A
12:20 PM46 °FPartly sunny.2 mph93%29.95 "Hg6 mi
11:50 AM46 °FPartly sunny.2 mph93%29.98 "Hg6 mi
11:20 AM45 °FPartly sunny.1 mph100%29.95 "HgN/A
10:50 AM45 °FFog.2 mph93%29.98 "HgN/A
10:20 AM43 °FFog.1 mph100%29.98 "Hg3 mi
9:50 AM41 °FFog.2 mph100%29.98 "Hg2 mi
9:20 AM41 °FFog.2 mph100%29.98 "Hg1 mi
Weather by CustomWeather, © 2016

See weather overviewHow to use our weather pages